Weather in Kiliya

Ukraine / Odesa District     45˚27′01″N   29˚15′57″E
temp.,
°C
wind,
m/s
gust,
m/s
humid.,
%
clouds,
%
prec.,
mm/h
press.,
hPa
HPBL,
m
27 november, fri
fri2723:00+4˚s23771 0.0 102422
02:00+3˚s238310 0.0 102324
05:00+2˚ssw23740 0.0 102222
08:00+3˚ssw23740 0.0 102224
11:00+9˚sw35420 0.0 1022356
14:00+11˚sw35330 0.0 1021543
17:00+7˚w11450 0.0 102122
20:00+5˚nne11530 0.0 102022
28 november, sat
sat2823:00+5˚nw00530 0.0 102122
02:00+4˚nne115737 0.0 102022
05:00+3˚n1163100 0.0 101922
08:00+3˚n2268100 0.0 101922
11:00+7˚nnw225173 0.0 1019319
14:00+8˚nw114763 0.0 1018500
17:00+6˚sw115954 0.0 101822
20:00+5˚wsw016256 0.0 101822
29 november, sun
sun2923:00+3˚nw016726 0.0 101822
02:00+3˚n226743 0.0 101822
05:00+3˚nne2370100 0.0 101736
08:00+2˚n238199 0.0 101849
11:00+6˚n3466100 0.0 1019362
14:00+8˚nne3463100 0.0 1019611
17:00+5˚nne3682100 0.0 1019221
20:00+4˚nne3685100 0.0 1020157
30 november, mon
mon3023:00+3˚ne3487100 0.0 1020102
02:00+3˚nne4787100 0.0 1020235
05:00+3˚nne6988100 1.2 1019301
08:00+3˚nne71190100 4.6 1020376
11:00+3˚nne6990100 2.8 1020368
14:00+3˚n71191100 6.3 1019349
17:00+3˚n71193100 6.1 1020436
20:00+3˚n71192100 12.1 1021441
1 december, tue
tue123:00+4˚nnw71191100 2.0 1021478
02:00+2˚n81487100 2.8 1021483
05:00+2˚n71284100 0.0 1022542
08:00+2˚n71184100 0.1 1022417
11:00+3˚n71080100 0.0 1022427
14:00+4˚n7108098 0.0 1022434
17:00+3˚n6985100 0.0 1022357
20:00+3˚n5886100 0.0 1022319